Time,TemperatureF,DewpointF,PressureIn,WindDirection,WindDirectionDegrees,WindSpeedMPH,WindSpeedGustMPH,Humidity,HourlyPrecipIn,Conditions,Clouds,dailyrainin,SoftwareType,DateUTC
2013-04-05 00:00:00,27.4,22.3,29.92,ESE,103,0.0,1.0,81,0.00,,,0.00,Wunderground v.1.15,2013-04-05 04:00:00,
2013-04-05 00:01:00,27.4,22.3,29.92,East,98,0.0,1.0,81,0.00,,,0.00,Wunderground v.1.15,2013-04-05 04:01:00,
2013-04-05 00:02:00,27.4,22.3,29.92,East,98,2.0,2.0,81,0.00,,,0.00,Wunderground v.1.15,2013-04-05 04:02:00,
2013-04-05 00:05:00,27.4,22.3,29.92,East,98,0.0,2.0,81,0.00,,,0.00,Wunderground v.1.15,2013-04-05 04:05:00,
2013-04-05 00:10:00,27.4,22.6,29.92,East,98,1.0,1.0,82,0.00,,,0.00,Wunderground v.1.15,2013-04-05 04:10:00,
2013-04-05 00:15:00,27.4,22.3,29.92,East,85,1.0,2.0,81,0.00,,,0.00,Wunderground v.1.15,2013-04-05 04:15:00,
2013-04-05 00:20:00,27.4,22.3,29.92,ESE,102,2.0,2.0,81,0.00,,,0.00,Wunderground v.1.15,2013-04-05 04:20:00,
2013-04-05 00:26:00,27.3,22.5,29.91,East,101,0.0,2.0,82,0.00,,,0.00,Wunderground v.1.15,2013-04-05 04:26:00,
2013-04-05 00:31:00,27.3,22.5,29.91,East,91,2.0,2.0,82,0.00,,,0.00,Wunderground v.1.15,2013-04-05 04:31:00,
2013-04-05 00:36:00,27.2,22.4,29.91,East,84,1.0,2.0,82,0.00,,,0.00,Wunderground v.1.15,2013-04-05 04:36:00,
2013-04-05 00:42:00,27.2,22.4,29.91,East,95,2.0,2.0,82,0.00,,,0.00,Wunderground v.1.15,2013-04-05 04:42:00,
2013-04-05 00:47:00,27.3,22.2,29.91,East,95,0.0,2.0,81,0.00,,,0.00,Wunderground v.1.15,2013-04-05 04:47:00,
2013-04-05 00:52:00,27.1,22.0,29.91,East,95,0.0,1.0,81,0.00,,,0.00,Wunderground v.1.15,2013-04-05 04:52:00,
2013-04-05 00:57:00,26.9,22.1,29.91,East,95,1.0,1.0,82,0.00,,,0.00,Wunderground v.1.15,2013-04-05 04:57:00,
2013-04-05 01:03:00,26.7,21.9,29.90,East,91,0.0,1.0,82,0.00,,,0.00,Wunderground v.1.15,2013-04-05 05:03:00,
2013-04-05 01:08:00,26.6,21.8,29.90,East,91,0.0,1.0,82,0.00,,,0.00,Wunderground v.1.15,2013-04-05 05:08:00,
2013-04-05 01:13:00,26.3,21.8,29.90,East,91,0.0,1.0,83,0.00,,,0.00,Wunderground v.1.15,2013-04-05 05:13:00,
2013-04-05 01:18:00,26.2,22.0,29.90,East,93,0.0,1.0,84,0.00,,,0.00,Wunderground v.1.15,2013-04-05 05:18:00,
2013-04-05 01:24:00,26.1,21.9,29.90,East,93,0.0,0.0,84,0.00,,,0.00,Wunderground v.1.15,2013-04-05 05:24:00,
2013-04-05 01:30:00,25.9,21.7,29.90,East,93,0.0,0.0,84,0.00,,,0.00,Wunderground v.1.15,2013-04-05 05:30:00,
2013-04-05 01:36:00,25.7,21.8,29.90,East,93,0.0,0.0,85,0.00,,,0.00,Wunderground v.1.15,2013-04-05 05:36:00,
2013-04-05 01:41:00,25.6,21.4,29.89,ESE,118,0.0,0.0,84,0.00,,,0.00,Wunderground v.1.15,2013-04-05 05:41:00,
2013-04-05 01:47:00,25.6,21.4,29.89,ESE,119,0.0,1.0,84,0.00,,,0.00,Wunderground v.1.15,2013-04-05 05:47:00,
2013-04-05 01:53:00,25.6,21.7,29.89,ESE,119,0.0,1.0,85,0.00,,,0.00,Wunderground v.1.15,2013-04-05 05:53:00,
2013-04-05 01:58:00,25.5,21.6,29.88,ESE,119,0.0,1.0,85,0.00,,,0.00,Wunderground v.1.15,2013-04-05 05:58:00,
2013-04-05 02:03:00,25.5,21.6,29.88,ESE,118,0.0,1.0,85,0.00,,,0.00,Wunderground v.1.15,2013-04-05 06:03:00,
2013-04-05 02:08:00,25.6,21.7,29.88,East,99,1.0,3.0,85,0.00,,,0.00,Wunderground v.1.15,2013-04-05 06:08:00,
2013-04-05 02:13:00,25.7,21.5,29.87,East,91,2.0,2.0,84,0.00,,,0.00,Wunderground v.1.15,2013-04-05 06:13:00,
2013-04-05 02:18:00,25.7,21.5,29.88,East,86,0.0,2.0,84,0.00,,,0.00,Wunderground v.1.15,2013-04-05 06:18:00,
2013-04-05 02:23:00,25.6,21.4,29.88,East,87,1.0,1.0,84,0.00,,,0.00,Wunderground v.1.15,2013-04-05 06:23:00,
2013-04-05 02:28:00,25.5,21.3,29.88,East,89,0.0,1.0,84,0.00,,,0.00,Wunderground v.1.15,2013-04-05 06:28:00,
2013-04-05 02:33:00,25.4,21.5,29.87,East,98,0.0,2.0,85,0.00,,,0.00,Wunderground v.1.15,2013-04-05 06:33:00,
2013-04-05 02:38:00,25.4,21.5,29.87,East,98,0.0,2.0,85,0.00,,,0.00,Wunderground v.1.15,2013-04-05 06:38:00,
2013-04-05 02:43:00,25.5,21.6,29.86,East,82,2.0,3.0,85,0.00,,,0.00,Wunderground v.1.15,2013-04-05 06:43:00,
2013-04-05 02:49:00,25.8,21.6,29.86,East,96,1.0,3.0,84,0.00,,,0.00,Wunderground v.1.15,2013-04-05 06:49:00,
2013-04-05 02:54:00,25.9,21.4,29.86,East,96,1.0,1.0,83,0.00,,,0.00,Wunderground v.1.15,2013-04-05 06:54:00,
2013-04-05 02:59:00,25.9,21.4,29.86,East,96,2.0,2.0,83,0.00,,,0.00,Wunderground v.1.15,2013-04-05 06:59:00,
2013-04-05 03:04:00,26.1,21.6,29.86,East,82,0.0,2.0,83,0.00,,,0.00,Wunderground v.1.15,2013-04-05 07:04:00,
2013-04-05 03:09:00,26.1,22.2,29.86,ENE,67,0.0,1.0,85,0.00,,,0.00,Wunderground v.1.15,2013-04-05 07:09:00,
2013-04-05 03:14:00,25.8,21.6,29.86,East,92,0.0,1.0,84,0.00,,,0.00,Wunderground v.1.15,2013-04-05 07:14:00,
2013-04-05 03:19:00,25.6,21.4,29.86,East,91,0.0,0.0,84,0.00,,,0.00,Wunderground v.1.15,2013-04-05 07:19:00,
2013-04-05 03:24:00,25.5,21.6,29.86,ESE,105,0.0,2.0,85,0.00,,,0.00,Wunderground v.1.15,2013-04-05 07:24:00,
2013-04-05 03:30:00,25.4,21.5,29.86,ESE,106,0.0,0.0,85,0.00,,,0.00,Wunderground v.1.15,2013-04-05 07:30:00,
2013-04-05 03:35:00,25.4,21.5,29.86,ESE,105,0.0,1.0,85,0.00,,,0.00,Wunderground v.1.15,2013-04-05 07:35:00,
2013-04-05 03:40:00,25.4,21.8,29.86,East,96,0.0,1.0,86,0.00,,,0.00,Wunderground v.1.15,2013-04-05 07:40:00,
2013-04-05 03:45:00,25.4,21.8,29.86,ESE,110,1.0,2.0,86,0.00,,,0.00,Wunderground v.1.15,2013-04-05 07:45:00,
2013-04-05 03:50:00,25.4,21.8,29.86,East,91,0.0,1.0,86,0.00,,,0.00,Wunderground v.1.15,2013-04-05 07:50:00,
2013-04-05 03:55:00,25.6,22.0,29.86,East,84,0.0,2.0,86,0.00,,,0.00,Wunderground v.1.15,2013-04-05 07:55:00,
2013-04-05 04:00:00,25.7,22.1,29.86,ESE,119,2.0,2.0,86,0.00,,,0.00,Wunderground v.1.15,2013-04-05 08:00:00,
2013-04-05 04:05:00,25.6,22.0,29.85,East,96,0.0,2.0,86,0.00,,,0.00,Wunderground v.1.15,2013-04-05 08:05:00,
2013-04-05 04:10:00,25.6,22.0,29.85,East,98,0.0,1.0,86,0.00,,,0.00,Wunderground v.1.15,2013-04-05 08:10:00,
2013-04-05 04:15:00,25.9,22.3,29.85,East,98,0.0,1.0,86,0.00,,,0.00,Wunderground v.1.15,2013-04-05 08:15:00,
2013-04-05 04:20:00,25.8,22.2,29.85,East,98,0.0,0.0,86,0.00,,,0.00,Wunderground v.1.15,2013-04-05 08:20:00,
2013-04-05 04:25:00,26.1,22.2,29.84,West,260,2.0,4.0,85,0.00,,,0.00,Wunderground v.1.15,2013-04-05 08:25:00,
2013-04-05 04:30:00,27.2,22.7,29.84,ESE,117,0.0,0.0,83,0.00,,,0.00,Wunderground v.1.15,2013-04-05 08:30:00,
2013-04-05 04:35:00,27.3,22.2,29.84,ESE,117,0.0,1.0,81,0.00,,,0.00,Wunderground v.1.15,2013-04-05 08:35:00,
2013-04-05 04:40:00,27.5,21.8,29.84,East,96,0.0,0.0,79,0.00,,,0.00,Wunderground v.1.15,2013-04-05 08:40:00,
2013-04-05 04:45:00,28.0,20.8,29.84,South,174,2.0,2.0,74,0.00,,,0.00,Wunderground v.1.15,2013-04-05 08:45:00,
2013-04-05 04:50:00,28.4,21.8,29.84,South,173,0.0,0.0,76,0.00,,,0.00,Wunderground v.1.15,2013-04-05 08:50:00,
2013-04-05 04:55:00,28.7,21.5,29.84,South,173,0.0,0.0,74,0.00,,,0.00,Wunderground v.1.15,2013-04-05 08:55:00,
2013-04-05 05:00:00,29.1,21.2,29.83,WNW,299,0.0,0.0,72,0.00,,,0.00,Wunderground v.1.15,2013-04-05 09:00:00,
2013-04-05 05:05:00,29.3,20.7,29.83,WNW,299,0.0,1.0,70,0.00,,,0.00,Wunderground v.1.15,2013-04-05 09:05:00,
2013-04-05 05:10:00,29.9,20.6,29.83,South,174,0.0,0.0,68,0.00,,,0.00,Wunderground v.1.15,2013-04-05 09:10:00,
2013-04-05 05:15:00,30.4,20.0,29.83,NW,315,0.0,2.0,65,0.00,,,0.00,Wunderground v.1.15,2013-04-05 09:15:00,
2013-04-05 05:20:00,31.6,19.7,29.83,NW,308,0.0,2.0,61,0.00,,,0.00,Wunderground v.1.15,2013-04-05 09:20:00,
2013-04-05 05:25:00,32.1,20.2,29.83,NW,314,0.0,2.0,61,0.00,,,0.00,Wunderground v.1.15,2013-04-05 09:25:00,
2013-04-05 05:30:00,31.9,19.6,29.82,North,352,1.0,3.0,60,0.00,,,0.00,Wunderground v.1.15,2013-04-05 09:30:00,
2013-04-05 05:35:00,32.1,19.4,29.82,ESE,117,0.0,3.0,59,0.00,,,0.00,Wunderground v.1.15,2013-04-05 09:35:00,
2013-04-05 05:40:00,32.1,19.0,29.82,WNW,301,0.0,1.0,58,0.00,,,0.00,Wunderground v.1.15,2013-04-05 09:40:00,
2013-04-05 05:45:00,32.7,19.1,29.82,North,6,2.0,2.0,57,0.00,,,0.00,Wunderground v.1.15,2013-04-05 09:45:00,
2013-04-05 05:50:00,33.5,19.5,29.81,NW,318,0.0,2.0,56,0.00,,,0.00,Wunderground v.1.15,2013-04-05 09:50:00,
2013-04-05 05:56:00,33.7,18.4,29.81,North,3,2.0,3.0,53,0.00,,,0.00,Wunderground v.1.15,2013-04-05 09:56:00,
2013-04-05 06:01:00,34.1,18.7,29.81,NNW,339,2.0,3.0,53,0.00,,,0.00,Wunderground v.1.15,2013-04-05 10:01:00,
2013-04-05 06:06:00,34.3,18.5,29.81,NW,312,1.0,6.0,52,0.00,,,0.00,Wunderground v.1.15,2013-04-05 10:06:00,
2013-04-05 06:11:00,34.3,18.5,29.81,NW,321,2.0,3.0,52,0.00,,,0.00,Wunderground v.1.15,2013-04-05 10:11:00,
2013-04-05 06:16:00,34.1,17.8,29.81,NNW,338,2.0,5.0,51,0.00,,,0.00,Wunderground v.1.15,2013-04-05 10:16:00,
2013-04-05 06:21:00,33.9,18.1,29.81,NNW,348,1.0,2.0,52,0.00,,,0.00,Wunderground v.1.15,2013-04-05 10:21:00,
2013-04-05 06:26:00,33.6,18.3,29.81,NNE,20,2.0,3.0,53,0.00,,,0.00,Wunderground v.1.15,2013-04-05 10:26:00,
2013-04-05 06:31:00,32.3,20.0,29.81,ENE,60,2.0,2.0,60,0.00,,,0.00,Wunderground v.1.15,2013-04-05 10:31:00,
2013-04-05 06:36:00,31.1,20.7,29.81,East,88,3.0,3.0,65,0.00,,,0.00,Wunderground v.1.15,2013-04-05 10:36:00,
2013-04-05 06:41:00,30.3,20.6,29.81,ENE,63,0.0,1.0,67,0.00,,,0.00,Wunderground v.1.15,2013-04-05 10:41:00,
2013-04-05 06:46:00,29.6,20.7,29.81,ENE,62,1.0,1.0,69,0.00,,,0.00,Wunderground v.1.15,2013-04-05 10:46:00,
2013-04-05 06:51:00,29.0,21.4,29.81,ESE,108,0.0,1.0,73,0.00,,,0.00,Wunderground v.1.15,2013-04-05 10:51:00,
2013-04-05 06:56:00,28.4,20.5,29.81,East,96,2.0,2.0,72,0.00,,,0.00,Wunderground v.1.15,2013-04-05 10:56:00,
2013-04-05 07:02:00,28.4,21.2,29.82,East,85,1.0,3.0,74,0.00,,,0.00,Wunderground v.1.15,2013-04-05 11:02:00,
2013-04-05 07:07:00,28.6,19.4,29.82,WNW,288,0.0,3.0,68,0.00,,,0.00,Wunderground v.1.15,2013-04-05 11:07:00,
2013-04-05 07:12:00,29.1,21.5,29.82,East,93,2.0,2.0,73,0.00,,,0.00,Wunderground v.1.15,2013-04-05 11:12:00,
2013-04-05 07:17:00,29.3,20.0,29.82,East,86,2.0,4.0,68,0.00,,,0.00,Wunderground v.1.15,2013-04-05 11:17:00,
2013-04-05 07:22:00,30.3,21.3,29.82,SSE,153,0.0,2.0,69,0.00,,,0.00,Wunderground v.1.15,2013-04-05 11:22:00,
2013-04-05 07:27:00,31.1,20.3,29.82,SE,126,0.0,2.0,64,0.00,,,0.00,Wunderground v.1.15,2013-04-05 11:27:00,
2013-04-05 07:32:00,31.9,22.2,29.82,NE,41,1.0,4.0,67,0.00,,,0.00,Wunderground v.1.15,2013-04-05 11:32:00,
2013-04-05 07:37:00,33.8,19.3,29.82,SE,130,1.0,6.0,55,0.00,,,0.00,Wunderground v.1.15,2013-04-05 11:37:00,
2013-04-05 07:42:00,34.5,18.7,29.82,NNW,329,1.0,5.0,52,0.00,,,0.00,Wunderground v.1.15,2013-04-05 11:42:00,
2013-04-05 07:47:00,35.2,18.4,29.82,West,269,0.0,5.0,50,0.00,,,0.00,Wunderground v.1.15,2013-04-05 11:47:00,
2013-04-05 07:52:00,35.6,17.8,29.82,NNW,344,2.0,6.0,48,0.00,,,0.00,Wunderground v.1.15,2013-04-05 11:52:00,
2013-04-05 07:57:00,35.8,18.5,29.82,West,281,0.0,6.0,49,0.00,,,0.00,Wunderground v.1.15,2013-04-05 11:57:00,
2013-04-05 08:02:00,35.9,18.1,29.82,WNW,297,1.0,4.0,48,0.00,,,0.00,Wunderground v.1.15,2013-04-05 12:02:00,
2013-04-05 08:07:00,36.3,18.5,29.81,WSW,247,4.0,7.0,48,0.00,,,0.00,Wunderground v.1.15,2013-04-05 12:07:00,
2013-04-05 08:12:00,36.5,18.2,29.81,NNW,330,2.0,4.0,47,0.00,,,0.00,Wunderground v.1.15,2013-04-05 12:12:00,
2013-04-05 08:17:00,36.8,17.4,29.81,NW,312,1.0,6.0,45,0.00,,,0.00,Wunderground v.1.15,2013-04-05 12:17:00,
2013-04-05 08:22:00,37.1,18.7,29.81,NW,314,1.0,4.0,47,0.00,,,0.00,Wunderground v.1.15,2013-04-05 12:22:00,
2013-04-05 08:27:00,37.8,18.8,29.81,NW,318,4.0,7.0,46,0.00,,,0.00,Wunderground v.1.15,2013-04-05 12:27:00,
2013-04-05 08:33:00,38.2,18.7,29.80,SW,226,3.0,5.0,45,0.00,,,0.00,Wunderground v.1.15,2013-04-05 12:33:00,
2013-04-05 08:38:00,38.3,18.3,29.80,NW,309,3.0,6.0,44,0.00,,,0.00,Wunderground v.1.15,2013-04-05 12:38:00,
2013-04-05 08:43:00,38.3,19.3,29.80,NE,34,2.0,6.0,46,0.00,,,0.00,Wunderground v.1.15,2013-04-05 12:43:00,
2013-04-05 08:48:00,38.2,18.7,29.80,NW,316,5.0,6.0,45,0.00,,,0.00,Wunderground v.1.15,2013-04-05 12:48:00,
2013-04-05 08:53:00,38.3,18.8,29.79,NNW,336,1.0,6.0,45,0.00,,,0.00,Wunderground v.1.15,2013-04-05 12:53:00,
2013-04-05 08:58:00,39.0,18.9,29.79,West,267,1.0,6.0,44,0.00,,,0.00,Wunderground v.1.15,2013-04-05 12:58:00,
2013-04-05 09:03:00,39.3,18.1,29.79,WSW,246,2.0,6.0,42,0.00,,,0.00,Wunderground v.1.15,2013-04-05 13:03:00,
2013-04-05 09:08:00,39.5,18.3,29.79,SSW,202,5.0,8.0,42,0.00,,,0.00,Wunderground v.1.15,2013-04-05 13:08:00,
2013-04-05 09:13:00,40.0,19.3,29.78,SW,231,2.0,7.0,43,0.00,,,0.00,Wunderground v.1.15,2013-04-05 13:13:00,
2013-04-05 09:18:00,40.8,19.5,29.78,SW,217,0.0,7.0,42,0.00,,,0.00,Wunderground v.1.15,2013-04-05 13:18:00,
2013-04-05 09:24:00,41.2,18.7,29.78,ESE,115,1.0,8.0,40,0.00,,,0.00,Wunderground v.1.15,2013-04-05 13:24:00,
2013-04-05 09:29:00,41.5,18.4,29.78,SSW,201,2.0,3.0,39,0.00,,,0.00,Wunderground v.1.15,2013-04-05 13:29:00,
2013-04-05 09:34:00,41.8,18.0,29.77,NNW,335,2.0,7.0,38,0.00,,,0.00,Wunderground v.1.15,2013-04-05 13:34:00,
2013-04-05 09:39:00,42.0,19.4,29.77,SW,218,3.0,3.0,40,0.00,,,0.00,Wunderground v.1.15,2013-04-05 13:39:00,
2013-04-05 09:44:00,41.9,19.3,29.77,East,82,2.0,5.0,40,0.00,,,0.00,Wunderground v.1.15,2013-04-05 13:44:00,
2013-04-05 09:49:00,41.7,17.9,29.77,SSW,200,5.0,10.0,38,0.00,,,0.00,Wunderground v.1.15,2013-04-05 13:49:00,
2013-04-05 09:54:00,41.9,18.1,29.77,ESE,119,4.0,10.0,38,0.00,,,0.00,Wunderground v.1.15,2013-04-05 13:54:00,
2013-04-05 09:59:00,42.6,18.1,29.77,WSW,242,1.0,3.0,37,0.00,,,0.00,Wunderground v.1.15,2013-04-05 13:59:00,
2013-04-05 10:04:00,42.0,17.6,29.76,West,270,2.0,8.0,37,0.00,,,0.00,Wunderground v.1.15,2013-04-05 14:04:00,
2013-04-05 10:09:00,42.0,18.2,29.76,WSW,239,3.0,3.0,38,0.00,,,0.00,Wunderground v.1.15,2013-04-05 14:09:00,
2013-04-05 10:14:00,42.4,19.2,29.77,NE,41,1.0,7.0,39,0.00,,,0.00,Wunderground v.1.15,2013-04-05 14:14:00,
2013-04-05 10:19:00,42.9,17.7,29.76,South,173,6.0,7.0,36,0.00,,,0.00,Wunderground v.1.15,2013-04-05 14:19:00,
2013-04-05 10:24:00,42.9,19.6,29.76,NW,322,3.0,9.0,39,0.00,,,0.00,Wunderground v.1.15,2013-04-05 14:24:00,
2013-04-05 10:29:00,43.6,20.2,29.76,ENE,74,1.0,3.0,39,0.00,,,0.00,Wunderground v.1.15,2013-04-05 14:29:00,
2013-04-05 10:35:00,44.0,18.7,29.76,West,260,10.0,10.0,36,0.00,,,0.00,Wunderground v.1.15,2013-04-05 14:35:00,
2013-04-05 10:40:00,43.5,18.3,29.76,WNW,301,5.0,6.0,36,0.00,,,0.00,Wunderground v.1.15,2013-04-05 14:40:00,
2013-04-05 10:45:00,44.2,18.9,29.76,WSW,240,5.0,7.0,36,0.00,,,0.00,Wunderground v.1.15,2013-04-05 14:45:00,
2013-04-05 10:50:00,43.8,19.2,29.76,NW,323,5.0,13.0,37,0.00,,,0.00,Wunderground v.1.15,2013-04-05 14:50:00,
2013-04-05 10:55:00,44.1,18.2,29.76,North,351,3.0,13.0,35,0.00,,,0.00,Wunderground v.1.15,2013-04-05 14:55:00,
2013-04-05 11:00:00,43.9,18.6,29.76,SE,136,1.0,4.0,36,0.00,,,0.00,Wunderground v.1.15,2013-04-05 15:00:00,
2013-04-05 11:05:00,43.7,18.5,29.76,SE,124,3.0,8.0,36,0.00,,,0.00,Wunderground v.1.15,2013-04-05 15:05:00,
2013-04-05 11:10:00,43.5,18.9,29.76,NW,323,6.0,8.0,37,0.00,,,0.00,Wunderground v.1.15,2013-04-05 15:10:00,
2013-04-05 11:15:00,43.1,18.6,29.76,WNW,288,3.0,8.0,37,0.00,,,0.00,Wunderground v.1.15,2013-04-05 15:15:00,
2013-04-05 11:20:00,42.4,19.2,29.76,NW,307,6.0,6.0,39,0.00,,,0.00,Wunderground v.1.15,2013-04-05 15:20:00,
2013-04-05 11:25:00,41.9,18.7,29.77,WSW,246,3.0,8.0,39,0.00,,,0.00,Wunderground v.1.15,2013-04-05 15:25:00,
2013-04-05 11:30:00,41.7,19.7,29.77,NNW,346,6.0,6.0,41,0.00,,,0.00,Wunderground v.1.15,2013-04-05 15:30:00,
2013-04-05 11:35:00,41.6,20.7,29.76,SW,219,1.0,8.0,43,0.00,,,0.00,Wunderground v.1.15,2013-04-05 15:35:00,
2013-04-05 11:40:00,41.7,20.8,29.76,WNW,298,5.0,6.0,43,0.00,,,0.00,Wunderground v.1.15,2013-04-05 15:40:00,
2013-04-05 11:45:00,41.5,21.7,29.76,NW,321,2.0,9.0,45,0.00,,,0.00,Wunderground v.1.15,2013-04-05 15:45:00,
2013-04-05 11:51:00,41.1,21.3,29.76,WNW,297,5.0,6.0,45,0.00,,,0.00,Wunderground v.1.15,2013-04-05 15:51:00,
2013-04-05 11:57:00,41.1,22.4,29.76,NW,311,4.0,11.0,47,0.00,,,0.00,Wunderground v.1.15,2013-04-05 15:57:00,
2013-04-05 12:02:00,41.1,21.3,29.76,SW,221,4.0,9.0,45,0.00,,,0.00,Wunderground v.1.15,2013-04-05 16:02:00,
2013-04-05 12:07:00,41.2,21.4,29.76,WNW,298,3.0,9.0,45,0.00,,,0.00,Wunderground v.1.15,2013-04-05 16:07:00,
2013-04-05 12:12:00,41.2,21.4,29.75,NNW,342,4.0,5.0,45,0.00,,,0.00,Wunderground v.1.15,2013-04-05 16:12:00,
2013-04-05 12:17:00,41.2,22.5,29.75,North,354,2.0,9.0,47,0.00,,,0.00,Wunderground v.1.15,2013-04-05 16:17:00,
2013-04-05 12:22:00,41.6,23.8,29.75,South,183,3.0,8.0,49,0.00,,,0.00,Wunderground v.1.15,2013-04-05 16:22:00,
2013-04-05 12:27:00,42.0,23.7,29.75,NW,304,4.0,8.0,48,0.00,,,0.00,Wunderground v.1.15,2013-04-05 16:27:00,
2013-04-05 12:32:00,42.3,24.5,29.74,SW,231,4.0,6.0,49,0.00,,,0.00,Wunderground v.1.15,2013-04-05 16:32:00,
2013-04-05 12:37:00,43.5,25.1,29.74,SW,236,5.0,7.0,48,0.00,,,0.00,Wunderground v.1.15,2013-04-05 16:37:00,
2013-04-05 12:42:00,44.1,26.1,29.74,West,279,0.0,8.0,49,0.00,,,0.00,Wunderground v.1.15,2013-04-05 16:42:00,
2013-04-05 12:47:00,44.7,25.7,29.73,WNW,299,3.0,8.0,47,0.00,,,0.00,Wunderground v.1.15,2013-04-05 16:47:00,
2013-04-05 12:52:00,44.5,24.5,29.73,West,264,7.0,10.0,45,0.00,,,0.00,Wunderground v.1.15,2013-04-05 16:52:00,
2013-04-05 12:57:00,44.7,24.6,29.73,East,91,1.0,10.0,45,0.00,,,0.00,Wunderground v.1.15,2013-04-05 16:57:00,
2013-04-05 13:02:00,45.4,24.7,29.73,NW,319,3.0,8.0,44,0.00,,,0.00,Wunderground v.1.15,2013-04-05 17:02:00,
2013-04-05 13:07:00,44.8,23.6,29.73,NNW,342,4.0,14.0,43,0.00,,,0.00,Wunderground v.1.15,2013-04-05 17:07:00,
2013-04-05 13:12:00,44.1,22.4,29.73,NW,319,5.0,8.0,42,0.00,,,0.00,Wunderground v.1.15,2013-04-05 17:12:00,
2013-04-05 13:17:00,43.1,22.6,29.73,WNW,287,2.0,8.0,44,0.00,,,0.00,Wunderground v.1.15,2013-04-05 17:17:00,
2013-04-05 13:22:00,43.7,23.7,29.72,West,259,2.0,8.0,45,0.00,,,0.00,Wunderground v.1.15,2013-04-05 17:22:00,
2013-04-05 13:28:00,44.3,23.2,29.73,NNW,335,3.0,13.0,43,0.00,,,0.00,Wunderground v.1.15,2013-04-05 17:28:00,
2013-04-05 13:33:00,44.9,24.3,29.72,WNW,295,3.0,9.0,44,0.00,,,0.00,Wunderground v.1.15,2013-04-05 17:33:00,
2013-04-05 13:39:00,45.4,23.6,29.72,NW,305,4.0,9.0,42,0.00,,,0.00,Wunderground v.1.15,2013-04-05 17:39:00,
2013-04-05 13:44:00,45.1,22.8,29.72,WNW,299,9.0,11.0,41,0.00,,,0.00,Wunderground v.1.15,2013-04-05 17:44:00,
2013-04-05 13:49:00,44.7,24.1,29.71,WSW,245,4.0,4.0,44,0.00,,,0.00,Wunderground v.1.15,2013-04-05 17:49:00,
2013-04-05 13:54:00,45.4,23.6,29.71,NW,316,5.0,6.0,42,0.00,,,0.00,Wunderground v.1.15,2013-04-05 17:54:00,
2013-04-05 13:59:00,46.3,24.4,29.70,SW,224,10.0,10.0,42,0.00,,,0.00,Wunderground v.1.15,2013-04-05 17:59:00,
2013-04-05 14:04:00,46.6,23.5,29.70,WNW,291,7.0,12.0,40,0.00,,,0.00,Wunderground v.1.15,2013-04-05 18:04:00,
2013-04-05 14:09:00,46.4,23.9,29.70,WSW,238,6.0,6.0,41,0.00,,,0.00,Wunderground v.1.15,2013-04-05 18:09:00,
2013-04-05 14:14:00,46.5,22.8,29.70,WNW,295,3.0,6.0,39,0.00,,,0.00,Wunderground v.1.15,2013-04-05 18:14:00,
2013-04-05 14:19:00,46.0,21.8,29.70,South,188,1.0,8.0,38,0.00,,,0.00,Wunderground v.1.15,2013-04-05 18:19:00,
2013-04-05 14:24:00,46.1,23.1,29.69,NW,307,4.0,10.0,40,0.00,,,0.00,Wunderground v.1.15,2013-04-05 18:24:00,
2013-04-05 14:30:00,45.9,21.7,29.69,NW,311,4.0,6.0,38,0.00,,,0.00,Wunderground v.1.15,2013-04-05 18:30:00,
2013-04-05 14:35:00,45.1,22.2,29.69,WNW,290,3.0,12.0,40,0.00,,,0.00,Wunderground v.1.15,2013-04-05 18:35:00,
2013-04-05 14:40:00,45.1,22.2,29.69,WNW,302,5.0,6.0,40,0.00,,,0.00,Wunderground v.1.15,2013-04-05 18:40:00,
2013-04-05 14:45:00,45.6,22.6,29.68,NNW,337,3.0,8.0,40,0.00,,,0.00,Wunderground v.1.15,2013-04-05 18:45:00,
2013-04-05 14:50:00,45.6,21.4,29.68,NNE,23,7.0,7.0,38,0.00,,,0.00,Wunderground v.1.15,2013-04-05 18:50:00,
2013-04-05 14:55:00,45.7,22.1,29.69,WNW,294,4.0,12.0,39,0.00,,,0.00,Wunderground v.1.15,2013-04-05 18:55:00,
2013-04-05 15:00:00,45.1,22.8,29.68,NW,314,5.0,7.0,41,0.00,,,0.00,Wunderground v.1.15,2013-04-05 19:00:00,
2013-04-05 15:06:00,45.5,23.7,29.68,WNW,302,10.0,10.0,42,0.00,,,0.00,Wunderground v.1.15,2013-04-05 19:06:00,
2013-04-05 15:11:00,45.3,24.1,29.68,NNW,339,8.0,12.0,43,0.00,,,0.00,Wunderground v.1.15,2013-04-05 19:11:00,
2013-04-05 15:16:00,45.5,24.3,29.68,NNW,329,9.0,13.0,43,0.00,,,0.00,Wunderground v.1.15,2013-04-05 19:16:00,
2013-04-05 15:19:00,44.6,24.5,29.68,WNW,293,7.0,-999.0,45,0.00,,,0.00,Wunderground v.1.15,2013-04-05 19:19:00,
2013-04-05 15:21:00,44.9,24.3,29.68,NW,305,7.0,10.0,44,0.00,,,0.00,Wunderground v.1.15,2013-04-05 19:21:00,
2013-04-05 15:24:00,44.4,24.4,29.68,West,270,8.0,-999.0,45,0.00,,,0.00,Wunderground v.1.15,2013-04-05 19:24:00,
2013-04-05 15:26:00,44.3,23.7,29.68,NW,315,9.0,12.0,44,0.00,,,0.00,Wunderground v.1.15,2013-04-05 19:26:00,
2013-04-05 15:29:00,44.0,24.0,29.69,NW,315,8.0,-999.0,45,0.00,,,0.00,Wunderground v.1.15,2013-04-05 19:29:00,
2013-04-05 15:31:00,44.2,24.2,29.68,WNW,296,4.0,14.0,45,0.00,,,0.00,Wunderground v.1.15,2013-04-05 19:31:00,
2013-04-05 15:34:00,43.6,24.2,29.69,NW,315,7.0,-999.0,46,0.00,,,0.00,Wunderground v.1.15,2013-04-05 19:34:00,
2013-04-05 15:39:00,43.1,24.2,29.69,NW,315,8.0,-999.0,47,0.00,,,0.00,Wunderground v.1.15,2013-04-05 19:39:00,
2013-04-05 15:44:00,43.1,24.2,29.69,NW,315,8.0,-999.0,47,0.00,,,0.00,Wunderground v.1.15,2013-04-05 19:44:00,
2013-04-05 15:49:00,43.3,24.9,29.69,NW,315,8.0,-999.0,48,0.00,,,0.00,Wunderground v.1.15,2013-04-05 19:49:00,
2013-04-05 15:54:00,43.6,24.7,29.69,North,0,6.0,-999.0,47,0.00,,,0.00,Wunderground v.1.15,2013-04-05 19:54:00,
2013-04-05 15:59:00,43.5,23.5,29.69,NW,315,6.0,-999.0,45,0.00,,,0.00,Wunderground v.1.15,2013-04-05 19:59:00,
2013-04-05 16:04:00,43.3,23.9,29.69,NW,315,6.0,-999.0,46,0.00,,,0.00,Wunderground v.1.15,2013-04-05 20:04:00,
2013-04-05 16:09:00,43.2,24.3,29.70,NW,315,5.0,-999.0,47,0.00,,,0.00,Wunderground v.1.15,2013-04-05 20:09:00,
2013-04-05 16:14:00,42.4,23.6,29.70,NW,315,7.0,-999.0,47,0.00,,,0.00,Wunderground v.1.15,2013-04-05 20:14:00,
2013-04-05 16:19:00,41.8,23.0,29.71,WNW,293,6.0,-999.0,47,0.00,,,0.00,Wunderground v.1.15,2013-04-05 20:19:00,
2013-04-05 16:24:00,41.3,23.6,29.71,NW,315,6.0,-999.0,49,0.00,,,0.00,Wunderground v.1.15,2013-04-05 20:24:00,
2013-04-05 16:29:00,40.9,23.7,29.71,NW,315,7.0,-999.0,50,0.00,,,0.00,Wunderground v.1.15,2013-04-05 20:29:00,
2013-04-05 16:34:00,40.5,23.8,29.71,NW,315,7.0,-999.0,51,0.00,,,0.00,Wunderground v.1.15,2013-04-05 20:34:00,
2013-04-05 16:39:00,40.6,23.9,29.71,NW,315,6.0,-999.0,51,0.00,,,0.00,Wunderground v.1.15,2013-04-05 20:39:00,
2013-04-05 16:44:00,40.7,23.5,29.71,NW,315,8.0,-999.0,50,0.00,,,0.00,Wunderground v.1.15,2013-04-05 20:44:00,
2013-04-05 16:49:00,40.8,24.5,29.71,NW,315,6.0,-999.0,52,0.00,,,0.00,Wunderground v.1.15,2013-04-05 20:49:00,
2013-04-05 16:54:00,40.6,24.3,29.71,NW,315,5.0,-999.0,52,0.00,,,0.00,Wunderground v.1.15,2013-04-05 20:54:00,
2013-04-05 16:59:00,39.7,24.0,29.72,NW,315,7.0,-999.0,53,0.00,,,0.00,Wunderground v.1.15,2013-04-05 20:59:00,
2013-04-05 17:04:00,38.7,25.6,29.73,NW,315,8.0,-999.0,59,0.00,,,0.00,Wunderground v.1.15,2013-04-05 21:04:00,
2013-04-05 17:09:00,38.3,26.0,29.73,NW,315,6.0,-999.0,61,0.00,,,0.00,Wunderground v.1.15,2013-04-05 21:09:00,
2013-04-05 17:14:00,37.7,26.6,29.74,NW,315,4.0,-999.0,64,0.00,,,0.00,Wunderground v.1.15,2013-04-05 21:14:00,
2013-04-05 17:19:00,37.9,27.2,29.74,NW,315,6.0,-999.0,65,0.00,,,0.00,Wunderground v.1.15,2013-04-05 21:19:00,
2013-04-05 17:24:00,37.0,27.1,29.74,NW,315,7.0,-999.0,67,0.00,,,0.00,Wunderground v.1.15,2013-04-05 21:24:00,
2013-04-05 17:29:00,36.0,27.2,29.75,NW,315,7.0,-999.0,70,0.00,,,0.00,Wunderground v.1.15,2013-04-05 21:29:00,
2013-04-05 17:34:00,35.0,27.9,29.75,NW,315,7.0,-999.0,75,0.00,,,0.00,Wunderground v.1.15,2013-04-05 21:34:00,
2013-04-05 17:39:00,34.3,28.2,29.76,NW,315,6.0,-999.0,78,0.00,,,0.00,Wunderground v.1.15,2013-04-05 21:39:00,
2013-04-05 17:44:00,34.0,28.2,29.76,NW,315,5.0,-999.0,79,0.00,,,0.00,Wunderground v.1.15,2013-04-05 21:44:00,
2013-04-05 17:49:00,33.9,27.8,29.76,NW,315,5.0,-999.0,78,0.00,,,0.00,Wunderground v.1.15,2013-04-05 21:49:00,
2013-04-05 17:54:00,33.8,28.0,29.76,NW,315,5.0,-999.0,79,0.00,,,0.00,Wunderground v.1.15,2013-04-05 21:54:00,
2013-04-05 17:59:00,33.3,28.1,29.76,NW,315,5.0,-999.0,81,0.00,,,0.00,Wunderground v.1.15,2013-04-05 21:59:00,
2013-04-05 18:04:00,33.0,28.4,29.76,NW,315,3.0,-999.0,83,0.00,,,0.00,Wunderground v.1.15,2013-04-05 22:04:00,
2013-04-05 18:09:00,32.8,28.2,29.76,NW,315,4.0,-999.0,83,0.00,,,0.00,Wunderground v.1.15,2013-04-05 22:09:00,
2013-04-05 18:14:00,32.5,28.5,29.77,NW,315,4.0,-999.0,85,0.00,,,0.00,Wunderground v.1.15,2013-04-05 22:14:00,
2013-04-05 18:19:00,32.3,28.6,29.77,NW,315,3.0,-999.0,86,0.00,,,0.00,Wunderground v.1.15,2013-04-05 22:19:00,
2013-04-05 18:24:00,32.2,28.2,29.78,NW,315,4.0,-999.0,85,0.00,,,0.00,Wunderground v.1.15,2013-04-05 22:24:00,
2013-04-05 18:29:00,32.2,28.2,29.78,NW,315,2.0,-999.0,85,0.00,,,0.00,Wunderground v.1.15,2013-04-05 22:29:00,
2013-04-05 18:34:00,32.2,27.9,29.78,NW,315,2.0,-999.0,84,0.00,,,0.00,Wunderground v.1.15,2013-04-05 22:34:00,
2013-04-05 18:39:00,32.2,27.3,29.78,West,270,3.0,-999.0,82,0.00,,,0.00,Wunderground v.1.15,2013-04-05 22:39:00,
2013-04-05 18:44:00,32.3,27.4,29.79,WNW,293,4.0,-999.0,82,0.00,,,0.00,Wunderground v.1.15,2013-04-05 22:44:00,
2013-04-05 18:49:00,32.1,27.2,29.79,NW,315,7.0,-999.0,82,0.00,,,0.00,Wunderground v.1.15,2013-04-05 22:49:00,
2013-04-05 18:54:00,31.9,27.3,29.79,NW,315,4.0,-999.0,83,0.00,,,0.00,Wunderground v.1.15,2013-04-05 22:54:00,
2013-04-05 18:59:00,31.8,27.2,29.79,NW,315,5.0,-999.0,83,0.00,,,0.00,Wunderground v.1.15,2013-04-05 22:59:00,
2013-04-05 19:04:00,31.7,27.4,29.80,NW,315,4.0,-999.0,84,0.00,,,0.00,Wunderground v.1.15,2013-04-05 23:04:00,
2013-04-05 19:09:00,31.5,27.2,29.80,NW,315,3.0,-999.0,84,0.00,,,0.00,Wunderground v.1.15,2013-04-05 23:09:00,
2013-04-05 19:14:00,31.3,27.0,29.80,NW,315,4.0,-999.0,84,0.00,,,0.00,Wunderground v.1.15,2013-04-05 23:14:00,
2013-04-05 19:19:00,31.2,27.2,29.81,NW,315,2.0,-999.0,85,0.00,,,0.00,Wunderground v.1.15,2013-04-05 23:19:00,
2013-04-05 19:24:00,30.9,26.9,29.81,NW,315,5.0,-999.0,85,0.00,,,0.00,Wunderground v.1.15,2013-04-05 23:24:00,
2013-04-05 19:29:00,30.6,26.6,29.81,NW,315,3.0,-999.0,85,0.00,,,0.00,Wunderground v.1.15,2013-04-05 23:29:00,
2013-04-05 19:39:00,30.5,26.2,29.82,NW,315,3.0,-999.0,84,0.00,,,0.00,Wunderground v.1.15,2013-04-05 23:39:00,
2013-04-05 19:44:00,30.4,26.4,29.82,WNW,293,1.0,-999.0,85,0.00,,,0.00,Wunderground v.1.15,2013-04-05 23:44:00,
2013-04-05 19:49:00,30.4,26.1,29.82,NW,315,3.0,-999.0,84,0.00,,,0.00,Wunderground v.1.15,2013-04-05 23:49:00,
2013-04-05 19:54:00,30.5,25.7,29.82,NW,315,3.0,-999.0,82,0.00,,,0.00,Wunderground v.1.15,2013-04-05 23:54:00,
2013-04-05 19:59:00,30.6,25.8,29.82,NW,315,3.0,-999.0,82,0.00,,,0.00,Wunderground v.1.15,2013-04-05 23:59:00,
2013-04-05 20:04:00,30.7,25.6,29.83,WNW,293,2.0,-999.0,81,0.00,,,0.00,Wunderground v.1.15,2013-04-06 00:04:00,
2013-04-05 20:09:00,30.7,25.6,29.83,NW,315,2.0,-999.0,81,0.00,,,0.00,Wunderground v.1.15,2013-04-06 00:09:00,
2013-04-05 20:14:00,30.5,25.1,29.83,WNW,293,1.0,-999.0,80,0.00,,,0.00,Wunderground v.1.15,2013-04-06 00:14:00,
2013-04-05 20:19:00,30.4,24.7,29.83,NW,315,3.0,-999.0,79,0.00,,,0.00,Wunderground v.1.15,2013-04-06 00:19:00,
2013-04-05 20:24:00,30.2,23.5,29.83,NW,315,3.0,-999.0,76,0.00,,,0.00,Wunderground v.1.15,2013-04-06 00:24:00,
2013-04-05 20:29:00,30.1,23.1,29.83,NW,315,3.0,-999.0,75,0.00,,,0.00,Wunderground v.1.15,2013-04-06 00:29:00,
2013-04-05 20:34:00,30.0,23.0,29.83,NW,315,4.0,-999.0,75,0.00,,,0.00,Wunderground v.1.15,2013-04-06 00:34:00,
2013-04-05 20:39:00,29.8,22.5,29.84,NW,315,4.0,-999.0,74,0.00,,,0.00,Wunderground v.1.15,2013-04-06 00:39:00,
2013-04-05 20:44:00,29.7,22.1,29.84,NW,315,5.0,-999.0,73,0.00,,,0.00,Wunderground v.1.15,2013-04-06 00:44:00,
2013-04-05 20:49:00,29.7,21.8,29.84,NW,315,6.0,-999.0,72,0.00,,,0.00,Wunderground v.1.15,2013-04-06 00:49:00,
2013-04-05 20:54:00,29.5,21.6,29.84,NW,315,4.0,-999.0,72,0.00,,,0.00,Wunderground v.1.15,2013-04-06 00:54:00,
2013-04-05 20:59:00,29.4,21.5,29.84,NW,315,4.0,-999.0,72,0.00,,,0.00,Wunderground v.1.15,2013-04-06 00:59:00,
2013-04-05 21:04:00,29.2,21.3,29.84,WNW,293,3.0,-999.0,72,0.00,,,0.00,Wunderground v.1.15,2013-04-06 01:04:00,
2013-04-05 21:09:00,29.2,21.0,29.84,WNW,293,5.0,-999.0,71,0.00,,,0.00,Wunderground v.1.15,2013-04-06 01:09:00,
2013-04-05 21:14:00,29.0,20.8,29.84,NW,315,4.0,-999.0,71,0.00,,,0.00,Wunderground v.1.15,2013-04-06 01:14:00,
2013-04-05 21:19:00,28.9,20.7,29.85,NW,315,4.0,-999.0,71,0.00,,,0.00,Wunderground v.1.15,2013-04-06 01:19:00,
2013-04-05 21:24:00,28.8,20.6,29.85,NW,315,5.0,-999.0,71,0.00,,,0.00,Wunderground v.1.15,2013-04-06 01:24:00,
2013-04-05 21:29:00,28.7,20.5,29.85,NW,315,5.0,-999.0,71,0.00,,,0.00,Wunderground v.1.15,2013-04-06 01:29:00,
2013-04-05 21:34:00,28.5,20.3,29.85,NW,315,4.0,-999.0,71,0.00,,,0.00,Wunderground v.1.15,2013-04-06 01:34:00,
2013-04-05 21:39:00,28.4,20.2,29.85,NW,315,5.0,-999.0,71,0.00,,,0.00,Wunderground v.1.15,2013-04-06 01:39:00,
2013-04-05 22:02:00,28.8,20.6,29.85,WNW,301,4.0,11.0,71,0.00,,,0.00,Wunderground v.1.15,2013-04-06 02:02:00,
2013-04-05 22:07:00,28.7,20.5,29.85,NW,312,8.0,11.0,71,0.00,,,0.00,Wunderground v.1.15,2013-04-06 02:07:00,
2013-04-05 22:14:00,28.5,20.3,29.85,SW,233,1.0,8.0,71,0.00,,,0.00,Wunderground v.1.15,2013-04-06 02:14:00,
2013-04-05 22:21:00,28.3,20.1,29.84,NW,323,4.0,5.0,71,0.00,,,0.00,Wunderground v.1.15,2013-04-06 02:21:00,
2013-04-05 22:26:00,28.2,20.0,29.84,West,271,6.0,10.0,71,0.00,,,0.00,Wunderground v.1.15,2013-04-06 02:26:00,
2013-04-05 22:32:00,28.1,20.2,29.84,WNW,285,2.0,5.0,72,0.00,,,0.00,Wunderground v.1.15,2013-04-06 02:32:00,
2013-04-05 22:37:00,28.0,20.1,29.84,WNW,299,5.0,10.0,72,0.00,,,0.00,Wunderground v.1.15,2013-04-06 02:37:00,
2013-04-05 22:42:00,27.8,19.9,29.85,West,277,4.0,6.0,72,0.00,,,0.00,Wunderground v.1.15,2013-04-06 02:42:00,
2013-04-05 22:47:00,27.7,20.2,29.84,NW,304,4.0,7.0,73,0.00,,,0.00,Wunderground v.1.15,2013-04-06 02:47:00,
2013-04-05 22:52:00,27.6,20.1,29.84,WNW,287,6.0,7.0,73,0.00,,,0.00,Wunderground v.1.15,2013-04-06 02:52:00,
2013-04-05 22:57:00,27.6,20.4,29.85,NW,311,8.0,8.0,74,0.00,,,0.00,Wunderground v.1.15,2013-04-06 02:57:00,
2013-04-05 23:02:00,27.4,20.2,29.85,NW,308,7.0,8.0,74,0.00,,,0.00,Wunderground v.1.15,2013-04-06 03:02:00,
2013-04-05 23:07:00,27.4,20.2,29.85,WNW,285,4.0,8.0,74,0.00,,,0.00,Wunderground v.1.15,2013-04-06 03:07:00,
2013-04-05 23:12:00,27.2,20.0,29.85,NNW,342,5.0,10.0,74,0.00,,,0.00,Wunderground v.1.15,2013-04-06 03:12:00,
2013-04-05 23:17:00,27.1,20.2,29.85,WNW,283,5.0,10.0,75,0.00,,,0.00,Wunderground v.1.15,2013-04-06 03:17:00,
2013-04-05 23:22:00,27.1,20.2,29.86,WSW,250,2.0,7.0,75,0.00,,,0.00,Wunderground v.1.15,2013-04-06 03:22:00,
2013-04-05 23:27:00,27.1,19.9,29.86,West,263,3.0,8.0,74,0.00,,,0.00,Wunderground v.1.15,2013-04-06 03:27:00,
2013-04-05 23:32:00,27.1,19.9,29.86,NW,308,9.0,10.0,74,0.00,,,0.00,Wunderground v.1.15,2013-04-06 03:32:00,
2013-04-05 23:37:00,27.0,19.5,29.86,West,266,3.0,10.0,73,0.00,,,0.00,Wunderground v.1.15,2013-04-06 03:37:00,
2013-04-05 23:42:00,27.0,19.5,29.86,West,267,2.0,11.0,73,0.00,,,0.00,Wunderground v.1.15,2013-04-06 03:42:00,
2013-04-05 23:47:00,26.9,19.1,29.87,WSW,250,7.0,11.0,72,0.00,,,0.00,Wunderground v.1.15,2013-04-06 03:47:00,
2013-04-05 23:52:00,26.8,18.7,29.87,NW,318,7.0,9.0,71,0.00,,,0.00,Wunderground v.1.15,2013-04-06 03:52:00,
2013-04-05 23:57:00,26.7,18.6,29.87,WNW,283,2.0,13.0,71,0.00,,,0.00,Wunderground v.1.15,2013-04-06 03:57:00,